Tracking 28052 objects as of 24-Sep-2023
HD Live streaming from Space Station
objects crossing your sky now

COSMOS 875

Track COSMOS 875 now!
10-day predictions
COSMOS 875 is classified as:


NORAD ID: 9592
Int'l Code: 1976-118E
Perigee: 1,443.5 km
Apogee: 1,470.7 km
Inclination: 74.0 °
Period: 114.9 minutes
Semi major axis: 7828 km
RCS: 0.6944 m2 (medium)
Launch date: December 7, 1976
Source: Commonwealth of Independent States (former USSR) (CIS)
Launch site: PLESETSK MISSILE AND SPACE COMPLEX (PKMTR)
Your satellite tracking list
Your tracking list is empty




NASA's NSSDC Master Catalog

Two Line Element Set (TLE):
1  9592U 76118E   23266.91287693 -.00000003  00000-0  80114-4 0  9994
2  9592  74.0296  66.1571 0017367 163.7297 313.4705 12.53493259141451
Source of the keplerian elements: AFSPC